Terminal Aerodrome Forecast
Issued by NWS

Home | Current Version | Previous Version | Text Only | Print | Product List | Glossary On
Versions: 1 2 3 4 5 6 7 8 9 10 11 12 13 14 15 16 17 18 19 20 21 22 23 24
000
FTUS41 KBUF 251730
TAFJHW
TAF
KJHW 251730Z 2518/2618 01005KT P6SM VCSH OVC012
     FM251900 05008KT P6SM VCSH OVC015
     FM260600 13010G17KT P6SM VCSH OVC025
     FM260900 14012G18KT P6SM VCSH OVC007
     FM261100 15013G19KT P6SM OVC015
     FM261400 15016G22KT P6SM BKN035
     FM261700 15016G24KT P6SM BKN050
      AMD LTD TO CLD VIS AND WIND=

USA.gov is the U.S. government's official web portal to all federal, state and local government web resources and services.